TimeCDT,TemperatureF,Dew PointF,Humidity,Sea Level PressureIn,VisibilityMPH,Wind Direction,Wind SpeedMPH,Gust SpeedMPH,PrecipitationIn,Events,Conditions,WindDirDegrees,DateUTC
12:53 AM,72.0,66.9,84,30.03,10.0,North,6.9,-,N/A,,Overcast,10,2013-08-17 05:53:00
1:53 AM,70.0,66.9,90,30.01,10.0,North,5.8,-,N/A,,Partly Cloudy,350,2013-08-17 06:53:00
2:53 AM,69.1,66.9,93,30.01,7.0,North,4.6,-,N/A,,Scattered Clouds,10,2013-08-17 07:53:00
3:53 AM,70.0,68.0,93,30.01,6.0,North,4.6,-,N/A,,Mostly Cloudy,360,2013-08-17 08:53:00
4:20 AM,69.8,68.0,94,29.98,8.0,NE,3.5,-,N/A,,Partly Cloudy,50,2013-08-17 09:20:00
4:53 AM,69.1,68.0,96,30.01,6.0,North,4.6,-,N/A,,Clear,360,2013-08-17 09:53:00
5:27 AM,69.8,68.0,94,29.99,5.0,North,4.6,-,N/A,,Mostly Cloudy,360,2013-08-17 10:27:00
5:53 AM,70.0,68.0,93,30.01,5.0,Calm,Calm,-,N/A,,Overcast,0,2013-08-17 10:53:00
6:04 AM,69.8,69.8,100,29.99,5.0,North,3.5,-,N/A,,Overcast,360,2013-08-17 11:04:00
6:53 AM,71.1,69.1,93,30.01,5.0,Calm,Calm,-,N/A,,Mostly Cloudy,0,2013-08-17 11:53:00
7:53 AM,73.0,69.1,87,30.03,6.0,NE,4.6,-,N/A,,Mostly Cloudy,40,2013-08-17 12:53:00
8:53 AM,73.0,69.1,87,30.04,8.0,ENE,3.5,-,N/A,,Mostly Cloudy,60,2013-08-17 13:53:00
9:53 AM,77.0,70.0,79,30.04,10.0,Variable,3.5,-,N/A,,Scattered Clouds,0,2013-08-17 14:53:00
10:53 AM,78.1,71.1,79,30.05,10.0,NNE,6.9,-,N/A,,Overcast,30,2013-08-17 15:53:00
11:53 AM,82.0,71.1,69,30.04,10.0,NE,12.7,-,N/A,,Mostly Cloudy,40,2013-08-17 16:53:00
12:53 PM,82.9,70.0,65,30.03,10.0,NNE,9.2,-,N/A,,Scattered Clouds,20,2013-08-17 17:53:00
1:53 PM,82.0,69.1,65,30.02,10.0,NE,10.4,-,N/A,,Overcast,50,2013-08-17 18:53:00
2:53 PM,82.0,66.9,60,30.01,10.0,East,10.4,-,N/A,,Mostly Cloudy,100,2013-08-17 19:53:00
3:53 PM,84.0,69.1,61,30.00,10.0,Variable,6.9,-,N/A,,Partly Cloudy,0,2013-08-17 20:53:00
4:53 PM,81.0,70.0,69,30.00,10.0,ESE,8.1,-,0.00,Rain,Light Rain,110,2013-08-17 21:53:00
5:53 PM,81.0,69.1,67,30.00,10.0,East,9.2,-,0.00,,Clear,90,2013-08-17 22:53:00
6:53 PM,81.0,66.9,62,30.00,10.0,East,6.9,-,N/A,,Clear,90,2013-08-17 23:53:00
7:53 PM,75.9,68.0,76,30.01,4.0,ESE,4.6,-,N/A,,Haze,110,2013-08-18 00:53:00
8:53 PM,70.0,66.9,90,30.01,9.0,Calm,Calm,-,0.00,,Clear,0,2013-08-18 01:53:00
9:53 PM,68.0,66.9,96,30.02,6.0,Calm,Calm,-,N/A,,Clear,0,2013-08-18 02:53:00
10:53 PM,66.9,66.0,97,30.03,4.0,Calm,Calm,-,N/A,,Clear,0,2013-08-18 03:53:00
11:45 PM,66.2,64.4,94,30.01,2.5,Calm,Calm,-,N/A,,Clear,0,2013-08-18 04:45:00
11:53 PM,66.0,64.9,96,30.04,2.5,Calm,Calm,-,N/A,,Clear,0,2013-08-18 04:53:00